{"data":{"norad_id":56536,"intl_designator":"2023-065AK","name":"STARLINK-6312","alt_names":[],"object_type":"PAYLOAD","status":"ACTIVE","operator":null,"country":"US","launch_date":"2023-05-14","launch_site_code":"AFETR","launch_vehicle":null,"mission":null,"orbit_class":"UNKNOWN","rcs_meters":null,"size_class":null,"mass_kg":null,"dimensions":null,"purposes":["comms"],"wikipedia_slug":null,"has_3d_model":false,"image_url":null,"decayed_at":null,"tle_current":{"epoch":"2026-09-20T05:03:53.969184Z","epoch_age_seconds":139798,"freshness":"FRESH","line1":"1 56536U 23065AK  26263.21104131 -.00000005  00000+0  93340-5 0  9992","line2":"2 56536  43.0008 208.2752 0000819 246.9755 113.1011 15.27575302186183","mean_motion":15.27575302,"eccentricity":8.19e-5,"inclination_deg":43.0008,"raan_deg":208.2752,"arg_perigee_deg":246.9755,"mean_anomaly_deg":113.1011,"bstar":9.334e-6,"rev_number":18618,"period_min":94.267038627468,"perigee_km":482.50123128441,"apogee_km":483.6250958712,"semimajor_km":6861.2001635778,"source":"CELESTRAK","updated_at":"2026-09-21T09:00:33.475899Z"}}}